Location: Leuk
(46.3174°N, 7.6341°E)
Time: 18:41:35
(UTC+00:00)

COSMOS 2428 - Pass Details

Date: 09 March 2021
Orbit: 845 x 858 km, 70.9° (Epoch: 15 April)

Event Time Altitude Azimuth Distance (km) Brightness Sun altitude
Rises 04:52:44 0° 326° (NW) 3,431 5.6 -11.3°
Reaches altitude 10° 04:55:23 10° 317° (NW) 2,492 4.8 -10.9°
Maximum altitude 05:00:27 34° 255° (WSW) 1,385 3.3 -10.0°
Drops below altitude 10° 05:05:31 10° 192° (SSW) 2,483 5.0 -9.1°
Sets 05:08:09 0° 183° (S) 3,415 5.8 -8.7°
